Regional Weather Roundup
Issued by NWS

Home | Current Version | Previous Version | Text Only | Print | Product List | Glossary Off
Versions: 1 2 3 4 5 6 7 8 9 10 11 12 13 14 15 16 17 18 19 20 21 22 23 24 25 26 27 28 29 30 31 32 33 34 35 36 37 38 39 40 41 42 43 44 45 46 47 48 49 50

000
ASUS43 KIND 251759
RWRIN

WEATHER ROUNDUP FOR INDIANA
NATIONAL WEATHER SERVICE INDIANAPOLIS IN
100 PM EST TUE NOV 25 2014

NOTE: "FAIR" INDICATES FEW OR NO CLOUDS BELOW 12,000 FEET WITH NO
SIGNIFICANT WEATHER AND/OR OBSTRUCTIONS TO VISIBILITY.

* - STATION DOES NOT REPORT WEATHER SUCH AS PRECIPITATION OR FOG.

+ - STATION NOT QUALITY CONTROLLED BY THE NATIONAL WEATHER SERVICE.
    USE DATA WITH CAUTION...ESPECIALLY DEWPOINT AND RELATIVE
    HUMIDITY OBSERVATIONS.

INZ001>003-010>013-019-020-251900-
NORTHWEST INDIANA

CITY           SKY/WX    TMP DP  RH WIND       PRES   REMARKS
GARY /AIRPORT/ MOSUNNY   28  18  64 W14       30.10F WCI  17
VALPARAISO     NOT AVBL

$$

LMZ046-743>745-251900-
SOUTHERN LAKE MICHIGAN

STATION/POSITION TIME  TEMP WIND        PRES
                       AIR  DIR/SP/G
                 (UTC) (F)  (DEG/KT/KT) (MB)
MICHIGAN CITY    1700   25  230/ 18/ 22   N/A

$$

INZ004-005-014>016-021>024-251900-
NORTH CENTRAL INDIANA

CITY           SKY/WX    TMP DP  RH WIND       PRES   REMARKS
ELKHART        CLOUDY    27  19  74 SW8       29.92F WCI  18
GOSHEN         CLOUDY   N/A N/A N/A W13       30.07F
SOUTH BEND     CLOUDY    26  20  77 SW9       30.08S WCI  17
6HR MIN TEMP:  25; 6HR MAX TEMP:  27;


$$

INZ006>009-017-018-025>027-251900-
NORTHEAST INDIANA

CITY           SKY/WX    TMP DP  RH WIND       PRES   REMARKS
ANGOLA *+      CLOUDY    27  14  59 W9        30.05S WCI  17
FORT WAYNE     PTSUNNY   29  22  75 W16       30.09S WCI  17
6HR MIN TEMP:  28; 6HR MAX TEMP:  32;


$$

INZ028-029-035-036-043>045-051>053-251900-
WEST CENTRAL INDIANA

CITY           SKY/WX    TMP DP  RH WIND       PRES   REMARKS
GREENCASTLE +  CLOUDY    30  23  74 W6        30.15S WCI  24
LAFAYETTE      CLOUDY    26  21  81 W10       30.14R WCI  16
6HR MIN TEMP:  25; 6HR MAX TEMP:  30;

TERRE HAUTE    CLOUDY    32  24  72 W7        30.17S WCI  26
6HR MIN TEMP:  31; 6HR MAX TEMP:  34;


$$

INZ030>032-037>040-046>048-054>057-064-065-251900-
CENTRAL INDIANA

CITY           SKY/WX    TMP DP  RH WIND       PRES   REMARKS
ANDERSON       CLOUDY    30  25  80 W17       30.11F WCI  18
INDIANAPOLIS   CLOUDY    31  24  75 W13       30.12S WCI  21
6HR MIN TEMP:  31; 6HR MAX TEMP:  34;

-EAGLE CREEK   CLOUDY    30  23  75 W13       30.12S WCI  20
6HR MIN TEMP:  30; 6HR MAX TEMP:  34; 6HR PCP: TRACE;

KOKOMO *+      CLOUDY    27  19  74 W14       30.11S WCI  15
MT COMFORT *+  CLOUDY    32  21  64 W12       30.12S WCI  23
SHELBYVILLE    CLOUDY    36  27  69 W12       30.12S
6HR MIN TEMP:  35; 6HR MAX TEMP:  37;


$$

INZ033-034-041-042-049-050-058-059-251900-
EAST CENTRAL INDIANA

CITY           SKY/WX    TMP DP  RH WIND       PRES   REMARKS
MUNCIE         CLOUDY    30  25  81 W13       30.10S WCI  20
6HR MIN TEMP:  30; 6HR MAX TEMP:  34;


$$

INZ060-061-067>069-081>083-085>088-251900-
SOUTHWEST INDIANA

CITY           SKY/WX    TMP DP  RH WIND       PRES   REMARKS
EVANSVILLE     MOSUNNY   40  27  59 W8G18     30.18F
6HR MIN TEMP:  30; 6HR MAX TEMP:  41;

HUNTINGBURG *+ SUNNY     41  27  56 W9        30.17F
6HR MIN TEMP:  28; 6HR MAX TEMP:  41;


$$

INZ062-063-066-070>080-084-089>092-251900-
SOUTH CENTRAL AND SOUTHEAST INDIANA

CITY           SKY/WX    TMP DP  RH WIND       PRES   REMARKS
BLOOMINGTON    CLOUDY    33  26  75 W7        30.14S WCI  27
6HR MIN TEMP:  32; 6HR MAX TEMP:  34;


$$




USA.gov is the U.S. government's official web portal to all federal, state and local government web resources and services.